Weather in Gorkovskoe

Russia / Omsk Oblast     55°22′18″N   74°21′53″E
temp.,
°C
wind,
m/s
gust,
m/s
humid.,
%
clouds,
%
prec.,
mm/h
press.,
hPa
HPBL,
m
25 may, wed
wed2500:00+18e45485 0.0 101763
03:00+16sse34473 0.0 101741
06:00+16sse22540 0.0 101827
09:00+23se23390 0.0 1018389
12:00+27ese44300 0.0 10172262
15:00+28e552920 0.0 10162623
18:00+27e4634100 0.0 10152487
21:00+21e3355100 0.0 101642
26 may, thu
thu2600:00+19ese2253100 0.0 101612
03:00+18e225513 0.0 101617
06:00+18e3462100 0.0 101561
09:00+23ese594496 0.0 1015562
12:00+27se793297 0.0 10142343
15:00+28ese78305 0.0 10132908
18:00+27e793832 0.0 10121602
21:00+22ese614480 0.0 1011385
27 may, fri
fri2700:00+20ese615515 0.0 1010393
03:00+18ese6155987 0.0 1009342
06:00+18ese71566100 0.0 1008385
09:00+22se8134889 0.0 1007738
12:00+26sse8124126 0.0 10061983
15:00+26sw89390 0.0 10061984
18:00+21w885864 0.0 10081325
21:00+14w6108087 0.0 1011613
28 may, sat
sat2800:00+13w5880100 0.0 1012480
03:00+13wnw4775100 0.0 1012523
06:00+11wnw57805 0.0 1013418
09:00+15w5658100 0.0 1013834
12:00+18wnw683634 0.0 10131337
15:00+20wnw6734100 0.0 10131721
18:00+19nw6738100 0.0 10131880
21:00+14nw346097 0.0 101453
29 may, sun
sun2900:00+10nnw3682100 0.0 1015117
03:00+11wsw2471100 0.0 1014114
06:00+12w4969100 0.0 1014390
09:00+15nw576573 0.0 1014841
12:00+17wnw4663100 0.0 10131302
15:00+15nw5672100 0.1 10131045
18:00+15nnw5772100 0.2 1013880
21:00+14nnw587895 0.0 1013569